Find the Weather for any City, State or Zip Code, or Country:


Mobile Weather


Questions? Comments?
Contact Greg


Winchester Trails
Subdivision Website


Current Maps

Tropical (Hurricane)

Temperature

Heat Index

Windchill

Humidity

Radar

Dew Point

Wind

Visibility

Visible Satellite

Satellite

Fronts

Jet Stream

Flight Rules


Forecast Maps

Temperature Forecast

Maximum Temperature Forecast

Minimum Temperature Forecast

Dewpoint Forecast

Prevalent Weather

12Hr Probability of Precip.

Sky Cover


Health Maps

Houston Pollen/Mold Report

UV Forecast

Air Quality

Peak Air Quality Index


Aviation & NWS
Weather

NOAA Aviation Weather

Air Sports Net
Aviation Weather


SkyVector

Wunderground GA Weather

NWS Houston/Galveston

National Weather Service (main page)

National Hurricane Center


Miscellaneous

NOAA Historical Hurricane Tracks

Wunderground
Hurricane Archive


Harris Co. Flood Warning System

Harris Co. Storm Risk Calculator

U.S. Drought Monitor

TX Lake/Reservoir Data & Levels

Eric 'SciGuy' Berger Weather Blog

Dr. Jeff Masters Weather Blog

Houston Traffic

TxDOT Highway Conditions

Houston Electricity Outage Tracker

Houston Bayport Cruise Terminal Webcam

Galveston CruiseCam


This Station's Data

NOAA-Style Reports

Weather Detail

Daily Tabular Data


This Station's Position:
Lat. 29° 54' 14.18" N
Lon. 95° 34' 24.45" W
Elevation 112 ft (34.1 m)


Visit this station's partner in Cypress, 8sm west of here!


Weather Instruments:


Vantage Pro 2


Current Weather Conditions

This page refreshes automatically every 5 minutes and is best viewed at 1024x768 or higher resolution.
Powered by Ambient Weather Virtual Weather Station V15.00

Page last refreshed Thu April 2, 2015 at 1:29 am CDT (UTC -5) (2015-04-02 06:29 UTC/GMT/Zulu)

Metric & Other Conversions for Current Observations
Current Temp21.2 °CHigh Temp21.2 °CLow Temp20.6 °C
Current Dew Point19.4 °CHeat Index24.3 °CWind Chill21.2 °C
Barometer1014.6 mbarBarometer761 mmHgBarometer14.71 psi
Density Altitude:  830 ft (253 m)Pressure Altitude:  72 ft (21.9 m)
Barometer readings for a Standard Day (59.0 °F/15.0 °C @ sea level):  29.92" Hg, 1013.25 mbar, 757.83 mmHg, 14.70 psi


No Warnings, Watches, or Advisories for Harris and surrounding counties.


Local Radar Other Radar Graphics Local Satellite
Click for larger image WunderMap®

High Definition Radar (KHOU)

Regional Radar
Click for larger image
Radar & Satellite Graphics by Weather Underground






Forecast blank? Force Update

National Weather Service Forecast for:
Issued by:
Updated:
 

 

 

Forecast from NOAA-NWS for .

Follow this link for a current verbose area forecast discussion from the NWS.
Forecast Script by Saratoga Weather | Animated icons by Meteo Treviglio


Radar and Satellite Imagery


US Current Fronts w/Radar

Southcentral Infrared Satellite

US Jet Stream

Visible Satellite
Click to go to WUnderground
Sea Surface Temp & Tropical System Map
Map Graphics by Weather Underground


Rainfall Information
Yesterday's Rain: 0 in
Last Rainfall:
Surrounding Area Rainfall Data
NOAA Avg. Rainfall For: Month to Date
(1971-2000)
Month to Date
(1981-2010)
Year to Date
(1971-2000)
Year to Date
(1981-2010)
Jersey Village: 0.22 in
(-0.22 in)
0.2 in
(-0.2 in)
10.93 in
(-3.02 in)
10.96 in
(-3.05 in)
Intercontinental (KIAH) 0.22 in 0.2 in 10.24 in 10.19 in
Hobby (KHOU) 0.22 in 0.18 in 10.67 in 10.46 in
NOTE:  The numbers in parenthesis under the Jersey Village data above indicate how far ahead (green) or behind (red) this station's rain total is compared to the NOAA 1971-2000 and 1981-2010 climate normals data for today's date (Apr 02).


Other Current Regional Observations (METARs)

(Ordered by straight-line statute mile distance from this weather station)

A Few More Observations/METARs of Interest to Greg


Weather Almanac

NOAA/NWS Daily Historical Weather Browser
Major SE Texas Weather Events

Records and Normals for Apr 2
Temperature Forecast Normal Record
High 83° 73° 87°
(2006)
Low 64°
55°
45°
(1998)
Highs & Lows Observed at This Station
  Today Yesterday For 4/2015 For 2015
High Temp 70.1°F at 1:25am 79.1°F at 4:09pm 79.1°F on 4/1/15 84.6°F on 3/30/15
Low Temp 69.1°F at 12:31am 67.1°F at 3:49am 67.1°F on 4/1/15 28.8°F on 1/8/15
High Dew Point 67.0°F at 1:25am 69.3°F at 3:29pm 69.3°F on 4/1/15 70.2°F on 3/20/15
Low Dew Point 65.8°F at 12:23am 64.2°F at 3:46am 64.2°F on 4/1/15 11.2°F on 1/8/15
High Humidity 90% at 12:30am 92% at 4:21am 92% on 4/1/15 98% on 1/2/15
Low Humidity 89% at 12:00am 68% at 4:16pm 68% on 4/1/15 24% on 1/18/15
High Heat Index 75.7°F at 1:25am 82.1°F at 4:09pm 82.1°F on 4/1/15 86.3°F on 3/4/15
High Barometer 29.85in at 12:14am 29.91in at 10:59am 29.91in on 4/1/15 30.57in on 1/8/15
Low Barometer 29.84in at 1:14am 29.78in at 5:29pm 29.78in on 4/1/15 29.67in on 3/4/15
High Wind Speed 3mph at 12:00am 9mph at 5:32pm 9mph on 4/1/15 21mph on 1/22/15
High Wind Gust 3mph at 12:00am 9mph at 5:32pm 9mph on 4/1/15 21mph on 1/22/15
Low Wind Chill 69.1°F at 12:31am 67.1°F at 3:49am 67.1°F on 4/1/15 20.6°F on 1/8/15

Sun & Moon
Sunrise:  7:09am Sunset:  7:39pm Moon Phase:
92%
Moonrise:  6:22pm Moonset:  6:06am
Star Chart...

 

Local Trend Graphs


MesoNet Local Weather Exchange® Network

Station ID

City 
(Click for Map Location)

Neighborhood 
(Click for History)
Last Update
(Date & Time)

Temp
 (°)

Dew
Point (°)
Humidity 
(%)
Wind 
(mph)
From
the
Gust
(mph) 
Pressure (in) Hourly
Rain (in)
KTXHOUST61 Houston Willow Point 04/02 01:19:03 70.0 35.0 28 0 WSW 3 29.85 0.00
KTXHOUST186 Houston Winchester Trails 04/02 01:19:48 69.9 67.0 90 0 SSW 3 29.96 0.00
KTXHOUST483 Houston Windfern Forest 04/02 01:15:47 71.1 66.0 83 0 North 0 30.07 0.00
KTXHOUST213 Houston 18220 Tomball Parkway 04/02 00:54:34 70.0 68.0 92 5 NW 6 29.78 0.00
KTXHOUST178 Houston Schroeder Oaks Village 04/02 01:19:43 70.4 68.0 92 2 SSW 6 29.91 0.00
KTXHOUST291 Houston Steeplechase 04/02 01:19:40 70.3 69.0 94 1 West 4 29.92 0.00
KTXHOUST216 Houston Cutten Green 04/02 01:18:18 70.4 68.0 92 0 South 0 29.92 0.00
KTXHOUST232 Houston Rolling Fork 04/02 01:19:49 69.6 68.0 94 1 SSE 4 29.93 0.00
KTXHOUST349 Houston Champions Crossing 04/02 01:13:28 69.8 70.0 99 4 West 0 29.76 0.00
KTXCYPRE91 Cypress Mill Ridge North 04/02 01:15:34 70.5 67.0 89 0

North 0 29.97 0.00
KTXHOUST407 Houston Northside 04/02 01:15:16 71.1 68.0 89 0 North 0 30.04 0.00
KTXHOUST218 Houston Woodland Trails West 04/02 01:19:29 70.3 68.0 94 2 South 11 29.93 0.00
KTXHOUST466 Houston Mandolin Village 04/02 01:14:34 69.6 67.0 92 3 SSE 0 29.67 0.00
KTXHOUST121 Houston Norchester, K5WH 04/02 00:59:06 69.4 69.0 97 4 SE 10 29.91 0.00
KTXHOUST170 Houston Champions Park 04/02 01:12:56 69.9 68.0 92 3 SSE 5 29.93 0.00
KTXHOUST497 Houston NCI Building Systems 04/02 01:10:19 69.6 68.0 95 5 SSE 0 29.70 0.00
KTXTEXAS12 Texas FM 1960 04/02 01:12:29 69.8 69.0 98 4 SSW 0 29.90 0.00
KTXHOUST342 Houston Lakewood Forest at Cypresswood 04/02 01:19:45 68.9 66.0 91 2 SE 2 29.71 0.00
KTXCYPRE94 Cypress Ravensway 04/02 01:19:44 70.3 68.0 93 2 South 2 29.97 0.00
KTXHOUST233 Houston Woods of Wimbledon 04/02 01:19:49 70.2 65.0 84 0 South 1 29.93 0.00
KTXHOUST352 Houston Villa Toscana 04/02 01:19:43 69.9 68.0 92 1 SSE 4 29.90 0.00
KTXHOUST260 Houston Villages at Lakepointe 04/02 01:19:43 70.0 68.0 93 1 ESE 3 29.90 0.00
KTXHOUST169 Houston Lakewood Forest 04/02 01:15:05 69.4 68.0 94 0 SSE 2 29.94 0.00
KTXHOUST472 Houston Hearthstone 04/02 00:45:42 70.2 68.0 93 0 North 0 30.02 0.00
KTXHOUST456 Houston Woods Of Wimbledon 04/02 01:15:33 71.2 67.0 86 0 North 0 29.81 0.00
KTXHOUST261 Cypress Heatherwood Village 04/02 01:13:39 68.5 67.0 95 0 South 1 29.39 0.00
KTXSPRIN88 Spring Champions Woods 04/02 01:13:13 69.6 69.0 98 4 ESE 0 29.65 0.00
KTXHOUST493 Houston Lakes on Eldridge North 04/02 01:19:10 70.3 70.0 98 3 NNW 0 29.92 0.00
KTXCYPRE11 Cypress Weiser Airpark 04/02 01:19:40 67.8 63.0 85 3 SSW 3 29.96 0.00
KTXSPRIN112 Spring Colony Creek Village 04/02 01:15:16 70.5 68.0 91 0 North 0 29.82 0.00
KTXCYPRE42 Cypress Great Oaks 04/02 01:15:17 68.8 68.0 96 1 West 1 29.94 0.00
KTXCYPRE79 Cypress Cypress Chase 04/02 01:19:48 68.9 67.0 94 3 South 5 29.93 0.00
KTXTEXAS22 Texas Champion Forest 04/02 01:19:43 69.6 68.0 93 0 North 0 29.90 0.00
KTXHOUST271 Houston Middlegate Village 04/02 01:19:52 69.1 69.0 99 2 SSE 4 29.96 0.00
KTXHOUST506 Houston Lakes On Eldridge North 04/02 01:15:41 70.2 65.0 84 0 North 0 29.95 0.00
KTXCYPRE5 Cypress NW Houston (Wincrest Falls) 04/02 01:19:14 69.4 67.0 92 0 ESE 1 29.85 0.00
KTXCYPRE83 Cypress Wincrest Falls 04/02 01:15:23 69.1 67.0 92 0 North 0 29.81 0.00
KTXSPRIN9 Spring Wimbledon 04/02 01:19:45 69.3 66.0 89 0 SE 0 29.84 0.00
KDWH Houston Hooks Official Station 04/02 00:53:00 69.0 66.0 90 4 South --- 29.96 ---
KIAH Houston Intercontinental Official Station 69.0 69.0 67.0 93 5 South --- 29.97 ---